Change the Weather History Date:

Monday, March 4, 2013

  Actual Average (KRWF) Record (KRWF)
Temperature  
Mean Temperature 27 °F -  
Max Temperature 30 °F 34 °F 61 °F (1983)
Min Temperature 24 °F 17 °F -12 °F (1951)
Degree Days  
Heating Degree Days 38    
Moisture  
Dew Point 24 °F    
Average Humidity 86    
Maximum Humidity 93    
Minimum Humidity 80    
Precipitation  
Precipitation 0.00 in - - ()
Sea Level Pressure  
Sea Level Pressure 29.88 in    
Wind  
Wind Speed 15 mph (ESE)    
Max Wind Speed 20 mph    
Max Gust Speed 28 mph    
Visibility 5 miles    
Events Snow    
Averages and records for this station are not official NWS values.
T = Trace of Precipitation, MM = Missing Value Source: NWS Daily Summary

Daily Weather History Graph

Daily Weather History Graph

Search for Another Location

Airport or City:

Trip Planner

Search our weather history database for the weather conditions in past years. The results will help you decide how hot, cold, wet, or windy it might be!

Date:

Astronomy

Mar. 04, 2013 Rise Set
Actual Time 6:51 AM CST 6:12 PM CST
Civil Twilight 6:22 AM CST 6:41 PM CST
Nautical Twilight 5:48 AM CST 7:15 PM CST
Astronomical Twilight 5:15 AM CST 7:49 PM CST
Moon 1:12 AM CST (3/4) 10:43 AM CST (3/4)
Length of Visible Light 12h 18m
Length of Day
11h 20m
Waning Gibbous, 52% of the Moon is Illuminated
Mar 4
Waning Gibbous
Mar 4
Last Quarter
Mar 11
New
Mar 19
First Quarter
Mar 27
Full

Hourly Weather History & Observations

Time (CST) Temp. Windchill Dew Point Humidity Pressure Visibility Wind Dir Wind Speed Gust Speed Precip Events Conditions
12:11 AM 26.6 °F 14.7 °F 23.0 °F 86% 29.89 in 2.5 mi ESE 15.0 mph - N/A Snow Light Snow
12:31 AM 26.6 °F 14.3 °F 23.0 °F 86% 29.88 in 1.8 mi ESE 16.1 mph 23.0 mph N/A Snow Light Snow
12:51 AM 26.6 °F 14.3 °F 23.0 °F 86% 29.87 in 2.0 mi ESE 16.1 mph 24.2 mph N/A Snow Light Snow
1:11 AM 26.6 °F 13.8 °F 23.0 °F 86% 29.86 in 1.8 mi ESE 17.3 mph 25.3 mph N/A Snow Light Snow
1:50 AM 26.6 °F 13.1 °F 23.0 °F 86% 29.85 in 1.2 mi ESE 19.6 mph 26.5 mph N/A Snow Light Snow
2:11 AM 26.6 °F 13.1 °F 23.0 °F 86% 29.85 in 1.0 mi ESE 19.6 mph 27.6 mph N/A Snow Snow
2:31 AM 26.6 °F 13.8 °F 23.0 °F 86% 29.85 in 1.0 mi ESE 17.3 mph 24.2 mph N/A Snow Snow
2:51 AM 26.6 °F 13.4 °F 23.0 °F 86% 29.84 in 1.0 mi ESE 18.4 mph 25.3 mph N/A Snow Snow
3:10 AM 26.6 °F 13.8 °F 23.0 °F 86% 29.84 in 1.5 mi ESE 17.3 mph 25.3 mph N/A Snow Light Snow
3:31 AM 26.6 °F 13.8 °F 23.0 °F 86% 29.84 in 1.8 mi ESE 17.3 mph 23.0 mph N/A Snow Light Snow
3:51 AM 24.8 °F 11.1 °F 21.2 °F 86% 29.83 in 1.5 mi ESE 18.4 mph 24.2 mph N/A Snow Light Snow
4:10 AM 24.8 °F 10.7 °F 21.2 °F 86% 29.82 in 2.0 mi East 19.6 mph 26.5 mph N/A Snow Light Snow
4:30 AM 26.6 °F 13.4 °F 23.0 °F 86% 29.82 in 2.5 mi East 18.4 mph 26.5 mph N/A Snow Light Snow
4:51 AM 26.6 °F 14.7 °F 23.0 °F 86% 29.83 in 2.0 mi ESE 15.0 mph 27.6 mph N/A Snow Light Snow
5:11 AM 26.6 °F 13.1 °F 23.0 °F 86% 29.83 in 1.5 mi ESE 19.6 mph 26.5 mph N/A Snow Light Snow
5:51 AM 26.6 °F 13.1 °F 23.0 °F 86% 29.83 in 1.8 mi East 19.6 mph 25.3 mph N/A Snow Light Snow
6:11 AM 26.6 °F 14.3 °F 23.0 °F 86% 29.84 in 3.0 mi ESE 16.1 mph 24.2 mph N/A Snow Light Snow
6:31 AM 26.6 °F 13.8 °F 23.0 °F 86% 29.84 in 7.0 mi ESE 17.3 mph 24.2 mph N/A Snow Light Snow
6:50 AM 26.6 °F 15.2 °F 23.0 °F 86% 29.85 in 4.0 mi ESE 13.8 mph 24.2 mph N/A Snow Light Snow
7:11 AM 26.6 °F 14.3 °F 23.0 °F 86% 29.85 in 7.0 mi ESE 16.1 mph 23.0 mph N/A   Overcast
7:31 AM 26.6 °F 14.3 °F 23.0 °F 86% 29.85 in 10.0 mi ESE 16.1 mph 23.0 mph N/A   Overcast
7:51 AM 26.6 °F 15.2 °F 23.0 °F 86% 29.85 in 10.0 mi ESE 13.8 mph 20.7 mph N/A   Overcast
8:10 AM 26.6 °F 14.7 °F 23.0 °F 86% 29.86 in 10.0 mi ESE 15.0 mph 21.9 mph N/A   Overcast
8:31 AM 26.6 °F 14.7 °F 21.2 °F 80% 29.86 in 4.0 mi ESE 15.0 mph 21.9 mph N/A Snow Light Snow
8:51 AM 26.6 °F 15.2 °F 21.2 °F 80% 29.86 in 10.0 mi ESE 13.8 mph 21.9 mph N/A   Overcast
9:11 AM 26.6 °F 15.2 °F 21.2 °F 80% 29.86 in 10.0 mi ESE 13.8 mph 21.9 mph N/A   Overcast
9:30 AM 26.6 °F 14.7 °F 21.2 °F 80% 29.86 in 10.0 mi ESE 15.0 mph - N/A   Overcast
9:51 AM 26.6 °F 15.2 °F 21.2 °F 80% 29.87 in 10.0 mi ESE 13.8 mph 19.6 mph N/A   Overcast
10:11 AM 26.6 °F 15.7 °F 23.0 °F 86% 29.86 in 7.0 mi ESE 12.7 mph 18.4 mph N/A   Overcast
10:31 AM 26.6 °F 14.7 °F 23.0 °F 86% 29.87 in 5.0 mi ESE 15.0 mph 19.6 mph N/A   Overcast
10:50 AM 28.4 °F 17.0 °F 23.0 °F 80% 29.87 in 7.0 mi ESE 15.0 mph - N/A   Overcast
11:11 AM 28.4 °F 17.0 °F 23.0 °F 80% 29.86 in 5.0 mi ESE 15.0 mph - N/A   Overcast
11:31 AM 28.4 °F 17.0 °F 23.0 °F 80% 29.87 in 7.0 mi ESE 15.0 mph 18.4 mph N/A   Overcast
11:51 AM 28.4 °F 18.0 °F 23.0 °F 80% 29.88 in 7.0 mi ESE 12.7 mph 20.7 mph N/A   Overcast
12:10 PM 28.4 °F 17.5 °F 23.0 °F 80% 29.88 in 7.0 mi ESE 13.8 mph 19.6 mph N/A   Overcast
12:51 PM 28.4 °F 18.5 °F 23.0 °F 80% 29.87 in 7.0 mi ESE 11.5 mph 18.4 mph N/A   Overcast
1:11 PM 28.4 °F 17.0 °F 23.0 °F 80% 29.86 in 10.0 mi ESE 15.0 mph 20.7 mph N/A   Overcast
1:30 PM 28.4 °F 17.5 °F 23.0 °F 80% 29.87 in 10.0 mi ESE 13.8 mph 18.4 mph N/A   Overcast
1:51 PM 28.4 °F 17.5 °F 23.0 °F 80% 29.87 in 7.0 mi ESE 13.8 mph - N/A   Overcast
2:10 PM 28.4 °F 18.0 °F 23.0 °F 80% 29.87 in 7.0 mi ESE 12.7 mph 16.1 mph N/A   Overcast
2:31 PM 28.4 °F 17.5 °F 24.8 °F 86% 29.88 in 5.0 mi ESE 13.8 mph - N/A   Overcast
2:51 PM 30.2 °F 20.8 °F 26.6 °F 86% 29.87 in 4.0 mi ESE 11.5 mph 17.3 mph N/A   Overcast
3:11 PM 28.4 °F 19.1 °F 24.8 °F 86% 29.88 in 3.0 mi ESE 10.4 mph - N/A   Overcast
3:30 PM 30.2 °F 20.2 °F 28.4 °F 93% 29.88 in 2.0 mi ESE 12.7 mph - N/A   Overcast
3:51 PM 28.4 °F 18.0 °F 26.6 °F 93% 29.88 in 2.0 mi ESE 12.7 mph - N/A   Overcast
4:11 PM 28.4 °F 18.5 °F 26.6 °F 93% 29.89 in 1.8 mi ESE 11.5 mph - N/A Snow Light Snow
4:30 PM 28.4 °F 17.5 °F 26.6 °F 93% 29.88 in 4.0 mi ESE 13.8 mph - N/A   Overcast
4:51 PM 28.4 °F 17.5 °F 26.6 °F 93% 29.89 in 5.0 mi ESE 13.8 mph 17.3 mph N/A   Overcast
5:11 PM 28.4 °F 19.1 °F 26.6 °F 93% 29.89 in 1.8 mi ESE 10.4 mph 18.4 mph N/A Snow Light Snow
5:31 PM 28.4 °F 17.5 °F 26.6 °F 93% 29.89 in 0.8 mi ESE 13.8 mph 18.4 mph N/A Snow Light Snow
5:50 PM 28.4 °F 18.5 °F 26.6 °F 93% 29.90 in 2.5 mi ESE 11.5 mph 18.4 mph N/A Snow Light Snow
6:11 PM 28.4 °F 18.5 °F 26.6 °F 93% 29.92 in 5.0 mi ESE 11.5 mph - N/A   Overcast
6:30 PM 28.4 °F 19.1 °F 26.6 °F 93% 29.93 in 7.0 mi ESE 10.4 mph - N/A   Overcast
6:51 PM 28.4 °F 19.1 °F 24.8 °F 86% 29.94 in 7.0 mi ESE 10.4 mph - N/A   Overcast
7:10 PM 28.4 °F 20.4 °F 24.8 °F 86% 29.96 in 7.0 mi ESE 8.1 mph - N/A   Overcast
7:31 PM 28.4 °F 20.4 °F 24.8 °F 86% 29.95 in 7.0 mi ESE 8.1 mph - N/A   Overcast
7:51 PM 28.4 °F 19.1 °F 24.8 °F 86% 29.96 in 7.0 mi ESE 10.4 mph - N/A   Overcast
8:31 PM 26.6 °F 17.5 °F 23.0 °F 86% 29.95 in 7.0 mi ESE 9.2 mph - N/A Snow Light Snow
8:51 PM 26.6 °F 16.2 °F 23.0 °F 86% 29.95 in 10.0 mi ESE 11.5 mph - N/A   Overcast
9:10 PM 26.6 °F 16.2 °F 23.0 °F 86% 29.96 in 10.0 mi SE 11.5 mph - N/A   Overcast
9:31 PM 26.6 °F 16.2 °F 23.0 °F 86% 29.96 in 7.0 mi ESE 11.5 mph - N/A   Overcast
9:51 PM 26.6 °F 17.5 °F 23.0 °F 86% 29.96 in 7.0 mi ESE 9.2 mph - N/A   Overcast
10:11 PM 26.6 °F 16.8 °F 23.0 °F 86% 29.95 in 7.0 mi ESE 10.4 mph - N/A   Overcast
10:30 PM 26.6 °F 16.8 °F 23.0 °F 86% 29.95 in 7.0 mi ESE 10.4 mph - N/A   Overcast
10:51 PM 26.6 °F 18.2 °F 23.0 °F 86% 29.94 in 4.0 mi ESE 8.1 mph - N/A   Overcast
11:11 PM 26.6 °F 16.8 °F 23.0 °F 86% 29.93 in 3.0 mi ESE 10.4 mph - N/A   Overcast
11:31 PM 26.6 °F 17.5 °F 23.0 °F 86% 29.93 in 3.0 mi ESE 9.2 mph - N/A   Overcast
11:50 PM 26.6 °F 16.8 °F 23.0 °F 86% 29.93 in 4.0 mi ESE 10.4 mph - N/A   Overcast